Weather Roundup
Issued by NWS

Home | Current Version | Previous Version | Graphics & Text | Print | Product List | Glossary Off
Versions: 1 2 3 4 5 6 7 8 9 10 11 12 13 14 15 16 17 18 19 20 21 22 23 24 25 26 27 28 29 30 31 32 33 34 35 36 37 38 39 40 41 42 43 44 45 46 47 48 49 50

776
NZUS93 KARX 032159
HRRWXR

CURRENT HOURLY OBSERVATIONS ACROSS
MUCH OF THE UPPER MISSISSIPPI VALLEY
NATIONAL WEATHER SERVICE LA CROSSE WI
400 PM CST SAT DEC 03 2016


...SOUTHEAST MINNESOTA...


CITY           SKY/WX    TMP DP  RH WIND       PRES   REMARKS
ROCHESTER      CLOUDY    31  24  75 S6        30.24S WCI  25
ROCHESTER/MAYO CLOUDY    32  23  71 S3        30.24S
WINONA         CLOUDY    34  25  69 CALM      30.28S
AUSTIN         CLOUDY    32  27  80 CALM      30.23S
ALBERT LEA     PTCLDY    37  28  70 S6        30.22S WCI  33
DODGE CENTER   CLOUDY    30  25  80 SE7       30.23S WCI  23
PRESTON        CLOUDY    31  22  69 W5        30.26R WCI  26
OWATONNA       CLOUDY    32  25  74 SE7       30.22S WCI  26
FARIBAULT      MOCLDY    32  25  74 SE6       30.22F WCI  26
$$

...ELSEWHERE IN MINNESOTA...


CITY           SKY/WX    TMP DP  RH WIND       PRES   REMARKS
MINNEAPOLIS    MOCLDY    31  21  66 SE7       30.24S WCI  24
INTNL FALLS    CLOUDY    27  19  72 S6        30.16R WCI  20
DULUTH         CLOUDY    29  22  75 SE7       30.17F WCI  22
RED WING       CLOUDY    32  19  59 S3        30.25F
REDWOOD FALLS  CLOUDY    35  29  78 SE13      30.16R WCI  26
MANKATO        PTCLDY    32  27  81 SE10      30.21S WCI  24
WORTHINGTON    LGT SNOW  33  31  92 S20G25    30.13F FOG     WCI  21
FAIRMONT       MIX PCPN  36  32  85 S17       30.18F WCI  26
$$

...SOUTHWEST WISCONSIN...


CITY           SKY/WX    TMP DP  RH WIND       PRES   REMARKS
LA CROSSE      CLOUDY    35  24  64 VRB5      30.28R WCI  31
PRAIRIE DU CHI CLOUDY    35  25  67 E3        30.29S
BOSCOBEL       CLOUDY    35  25  66 S3        30.29F
LONE ROCK      CLOUDY    34  23  64 CALM      30.30S
PLATTEVILLE    NOT AVBL
FORT MC COY    CLOUDY    32  23  70 CALM      30.29R
MAUSTON-NEW LI CLOUDY    32  22  65 W5        30.26F WCI  28
VIROQUA        CLOUDY    31  25  79 S6        30.26R WCI  25
WIS DELLS      CLOUDY    32  22  66 CALM      30.27F
$$

...ELSEWHERE IN WISCONSIN...


CITY           SKY/WX    TMP DP  RH WIND       PRES   REMARKS
MILWAUKEE      CLOUDY    33  21  61 W7        30.32R WCI  27
MADISON        CLOUDY    33  23  66 CALM      30.29S
GREEN BAY      CLOUDY    33  24  69 W7        30.29S WCI  27
EAU CLAIRE     NOT AVBL
BLACK RVR FLS  CLOUDY    32  19  58 CALM      30.27F
MEDFORD        CLOUDY    28  19  69 CALM      30.23S
WAUSAU         CLOUDY    29  20  69 W5        30.23F WCI  24
WIS RAPIDS     CLOUDY    30  21  69 W3        30.28F
MARSHFIELD     CLOUDY    29  20  69 W3        30.24F
RICE LAKE      CLOUDY    30  24  78 SE5       30.24F WCI  25
$$

...NORTHEAST IOWA...


CITY           SKY/WX    TMP DP  RH WIND       PRES   REMARKS
WATERLOO       CLOUDY    38  27  64 S9        30.26R WCI  31
DUBUQUE        CLOUDY    35  26  69 CALM      30.27F
DECORAH        CLOUDY    34  23  64 CALM      30.24S
MASON CITY     CLOUDY    37  29  72 S6        30.24S WCI  32
CHARLES CITY   CLOUDY    37  28  70 S3        30.24S
OELWEIN        CLOUDY    37  28  70 S3        30.25F
$$

...ELSEWHERE IN IOWA...


CITY           SKY/WX    TMP DP  RH WIND       PRES   REMARKS
DES MOINES     LGT RAIN  41  31  67 S7        30.24S
IOWA CITY      CLOUDY    38  28  67 MISG      30.29F
FORT DODGE     CLOUDY    34  30  86 S6        30.23S WCI  29
MARSHALLTOWN   CLOUDY    38  31  76 SE8       30.23F WCI  32
CEDAR RAPIDS   CLOUDY    37  30  75 S7        30.26F WCI  32
$$

...NORTHERN ILLINOIS...


CITY           SKY/WX    TMP DP  RH WIND       PRES   REMARKS
CHICAGO-OHARE  MOCLDY    33  23  66 W6        30.32F WCI  28
CHICAGO-MIDWAY MOCLDY    34  23  64 W7        30.33F WCI  28
MOLINE         MOCLDY    38  25  59 CALM      30.30F
ROCKFORD       CLOUDY    36  25  64 W3        30.33F
PEORIA         MOCLDY    36  27  69 E8        30.32F WCI  30
$$

NOTE: "FAIR" INDICATES FEW OR NO CLOUDS BELOW 12,000 FEET WITH NO
SIGNIFICANT WEATHER AND/OR OBSTRUCTIONS TO VISIBILITY. WIND
SPEEDS ARE IN MILES-PER-HOUR.




USA.gov is the U.S. government's official web portal to all federal, state and local government web resources and services.